Hauptseite
METAR-TAF:

METAR-TAF

Flughäfen :

Meierwik

Glücksburg, Deutschland

Breite: 54-50N, Länge: 009-30E, Höhe: 27 m

Beobachtung

Neuester Wetterbericht von vor 56 Minuten, um 01:20 UTC
Wind 12 kt aus West
Temperatur 8°C
Luftfeuchtigkeit 93%
Luftdruck 1030 hPa
Sichtweite: 5000 m
Durchbrochene Bewölkung in der Höhe von 500 ft
feuchter Dunst

METAR: ETGG 210120Z 26012KT 5000 BR BKN005 08/07 Q1030 YLO

Zeit: 03:16 (02:16 UTC)


TAF: fehlend

Wetterbeobachtungen und Prognosen von mehr als 4000 Flughäfen (METAR und TAF Bericht).

Die verfügbaren Stationen werden durch gelbe und rote Markierungen auf der Karte dargestellt.

Führen Sie die Maus auf sie, um den Namen der Station zu sehen.

Darauf klicken, um die Beobachtung von Wetterbeobachtungen und Prognosen zu sehen.

Um die Karte zu ändern : klicken Sie auf den grünen Tasten mit einem schwarzen Kreuz Zum Vergrößern, auf den grünen Button mit einem Gedankenstrich zu verkleinern, oder auf die grünen Pfeile für benachbarte Karten.


METAR-TAF: